When you browse on this site, cookies collect data to enhance your experience and personalize the content and advertising you see.
Visit our Privacy Policy to learn more. By continuing to use the site, you agree to this use of cookies and data.
  • Em Portugal
  • Lista de países
  • Para 7 dias
  • Temperatura da água
  • Mapas de satélite
  • Mapa do tempo
  • Widgets de tempo
  • user-avatar
    Iniciar Sessão

    Previsão horária em Rauson

    Hoje, 21 Janeiro, Segunda-feira

    Tempo Temperatura Precipitação Vento Pressão Humidade
    00:00 +27°C° 0 mm 13 m/s 750 mmHg 23%
    01:00 +24°C° 0 mm 13 m/s 751 mmHg 24%
    02:00 +22°C° 0 mm 12 m/s 752 mmHg 26%
    03:00 +21°C° 0 mm 12 m/s 753 mmHg 26%
    04:00 +19°C° 0 mm 11 m/s 753 mmHg 26%
    05:00 +17°C° 0 mm 11 m/s 754 mmHg 27%
    06:00 +18°C° 0 mm 10 m/s 754 mmHg 26%
    07:00 +18°C° 0 mm 9 m/s 755 mmHg 26%
    08:00 +18°C° 0 mm 8 m/s 755 mmHg 26%
    09:00 +20°C° 0 mm 7 m/s 755 mmHg 23%
    10:00 +21°C° 0 mm 6 m/s 755 mmHg 20%
    11:00 +23°C° 0 mm 6 m/s 755 mmHg 16%
    12:00 +25°C° 0 mm 5 m/s 755 mmHg 14%
    13:00 +27°C° 0 mm 5 m/s 754 mmHg 12%
    14:00 +28°C° 0 mm 5 m/s 754 mmHg 10%
    15:00 +29°C° 0 mm 5 m/s 753 mmHg 11%
    16:00 +30°C° 0 mm 5 m/s 753 mmHg 11%
    17:00 +32°C° 0 mm 5 m/s 752 mmHg 12%
    18:00 +30°C° 0 mm 5 m/s 752 mmHg 13%
    19:00 +29°C° 0 mm 6 m/s 752 mmHg 14%
    20:00 +28°C° 0 mm 6 m/s 752 mmHg 15%
    21:00 +27°C° 0 mm 6 m/s 752 mmHg 17%
    22:00 +26°C° 0 mm 5 m/s 752 mmHg 18%
    23:00 +25°C° 0 mm 4 m/s 753 mmHg 20%

    Amanhã, 22 Janeiro, Terça-feira

    Tempo Temperatura Precipitação Vento Pressão Humidade
    00:00 +23°C° 0 mm 4 m/s 753 mmHg 24%
    01:00 +22°C° 0 mm 4 m/s 753 mmHg 28%
    02:00 +21°C° 0 mm 4 m/s 753 mmHg 31%
    03:00 +21°C° 0 mm 3 m/s 753 mmHg 32%
    04:00 +21°C° 0 mm 3 m/s 754 mmHg 33%
    05:00 +20°C° 0 mm 2 m/s 754 mmHg 34%
    06:00 +21°C° 0 mm 4 m/s 754 mmHg 31%
    07:00 +22°C° 0 mm 6 m/s 754 mmHg 29%
    08:00 +23°C° 0 mm 8 m/s 755 mmHg 27%
    09:00 +23°C° 0 mm 9 m/s 755 mmHg 27%
    10:00 +23°C° 0 mm 10 m/s 755 mmHg 28%
    11:00 +23°C° 0 mm 11 m/s 756 mmHg 28%
    12:00 +23°C° 0 mm 10 m/s 756 mmHg 24%
    13:00 +24°C° 0 mm 10 m/s 756 mmHg 20%
    14:00 +26°C° 0 mm 10 m/s 756 mmHg 17%
    15:00 +26°C° 0 mm 9 m/s 756 mmHg 16%
    16:00 +26°C° 0 mm 8 m/s 756 mmHg 16%
    17:00 +26°C° 0 mm 7 m/s 757 mmHg 16%
    18:00 +23°C° 0 mm 7 m/s 757 mmHg 24%
    19:00 +21°C° 0 mm 7 m/s 757 mmHg 32%
    20:00 +19°C° 0 mm 6 m/s 758 mmHg 41%
    21:00 +17°C° 0 mm 6 m/s 758 mmHg 43%
    22:00 +17°C° 0 mm 6 m/s 759 mmHg 46%
    23:00 +16°C° 0 mm 5 m/s 759 mmHg 49%

    Depois de amanhã, 23 Janeiro, Quarta-feira

    Tempo Temperatura Precipitação Vento Pressão Humidade
    00:00 +16°C° 0 mm 6 m/s 760 mmHg 50%
    01:00 +17°C° 0 mm 6 m/s 760 mmHg 51%
    02:00 +17°C° 0 mm 6 m/s 760 mmHg 52%
    03:00 +17°C° 0 mm 6 m/s 761 mmHg 52%
    04:00 +17°C° 0 mm 5 m/s 761 mmHg 51%
    05:00 +17°C° 0 mm 5 m/s 761 mmHg 50%
    06:00 +19°C° 0 mm 5 m/s 761 mmHg 42%
    07:00 +20°C° 0 mm 5 m/s 761 mmHg 33%
    08:00 +21°C° 0 mm 5 m/s 762 mmHg 24%
    09:00 +22°C° 0 mm 4 m/s 761 mmHg 22%
    10:00 +25°C° 0 mm 4 m/s 761 mmHg 20%
    11:00 +26°C° 0 mm 4 m/s 761 mmHg 17%
    12:00 +27°C° 0 mm 5 m/s 760 mmHg 16%
    13:00 +29°C° 0 mm 5 m/s 759 mmHg 15%
    14:00 +30°C° 0 mm 5 m/s 759 mmHg 13%
    15:00 +32°C° 0 mm 6 m/s 758 mmHg 14%
    16:00 +33°C° 0 mm 7 m/s 757 mmHg 16%
    17:00 +33°C° 0 mm 8 m/s 756 mmHg 17%
    18:00 +31°C° 0 mm 10 m/s 756 mmHg 22%
    19:00 +28°C° 0 mm 11 m/s 755 mmHg 27%
    20:00 +26°C° 0 mm 12 m/s 755 mmHg 33%
    21:00 +26°C° 0 mm 13 m/s 755 mmHg 35%
    22:00 +24°C° 0 mm 13 m/s 755 mmHg 36%
    23:00 +24°C° 0 mm 14 m/s 755 mmHg 38%

    24 Janeiro, Quinta-feira

    Tempo Temperatura Precipitação Vento Pressão Humidade
    00:00 +23°C° 0 mm 14 m/s 754 mmHg 40%
    01:00 +23°C° 0 mm 14 m/s 754 mmHg 41%
    02:00 +23°C° 0 mm 13 m/s 753 mmHg 42%
    03:00 +23°C° 0 mm 13 m/s 753 mmHg 43%
    04:00 +22°C° 0 mm 12 m/s 753 mmHg 43%
    05:00 +22°C° 0 mm 11 m/s 752 mmHg 44%
    06:00 +26°C° 0 mm 11 m/s 752 mmHg 38%
    07:00 +28°C° 0 mm 10 m/s 752 mmHg 32%
    08:00 +31°C° 0 mm 9 m/s 752 mmHg 27%
    09:00 +34°C° 0 mm 9 m/s 752 mmHg 22%
    10:00 +37°C° 0 mm 8 m/s 752 mmHg 18%
    11:00 +40°C° 0 mm 8 m/s 752 mmHg 13%
    12:00 +38°C° 0.1 mm 8 m/s 751 mmHg 17%
    13:00 +36°C° 0.1 mm 7 m/s 750 mmHg 21%
    14:00 +34°C° 0.1 mm 7 m/s 750 mmHg 25%
    15:00 +33°C° 0.5 mm 7 m/s 749 mmHg 29%
    16:00 +33°C° 0.5 mm 7 m/s 748 mmHg 32%
    17:00 +32°C° 0.5 mm 7 m/s 748 mmHg 35%
    18:00 +29°C° 0 mm 6 m/s 748 mmHg 45%
    19:00 +27°C° 0 mm 6 m/s 748 mmHg 54%
    20:00 +26°C° 0 mm 6 m/s 748 mmHg 63%
    21:00 +24°C° 0 mm 6 m/s 749 mmHg 63%
    22:00 +23°C° 0 mm 7 m/s 749 mmHg 64%
    23:00 +22°C° 0 mm 8 m/s 750 mmHg 64%

    25 Janeiro, Sexta-feira

    Tempo Temperatura Precipitação Vento Pressão Humidade
    00:00 +23°C° 0 mm 7 m/s 750 mmHg 57%
    01:00 +23°C° 0 mm 7 m/s 751 mmHg 49%
    02:00 +23°C° 0 mm 7 m/s 751 mmHg 41%
    03:00 +23°C° 0 mm 6 m/s 751 mmHg 43%
    04:00 +22°C° 0 mm 5 m/s 752 mmHg 45%
    05:00 +21°C° 0 mm 3 m/s 752 mmHg 47%
    06:00 +22°C° 0 mm 4 m/s 752 mmHg 44%
    07:00 +23°C° 0 mm 6 m/s 753 mmHg 40%
    08:00 +23°C° 0 mm 7 m/s 753 mmHg 37%
    09:00 +24°C° 0 mm 7 m/s 753 mmHg 33%
    10:00 +26°C° 0 mm 7 m/s 754 mmHg 30%
    11:00 +27°C° 0 mm 7 m/s 754 mmHg 27%
    12:00 +27°C° 0 mm 7 m/s 754 mmHg 26%
    13:00 +27°C° 0 mm 7 m/s 754 mmHg 26%
    14:00 +26°C° 0 mm 7 m/s 754 mmHg 26%
    15:00 +26°C° 0 mm 6 m/s 754 mmHg 27%
    16:00 +26°C° 0 mm 5 m/s 754 mmHg 28%
    17:00 +26°C° 0 mm 4 m/s 755 mmHg 29%
    18:00 +25°C° 0 mm 4 m/s 755 mmHg 32%
    19:00 +23°C° 0 mm 5 m/s 756 mmHg 34%
    20:00 +22°C° 0 mm 5 m/s 757 mmHg 37%
    21:00 +21°C° 0 mm 5 m/s 757 mmHg 40%
    22:00 +20°C° 0 mm 5 m/s 758 mmHg 44%
    23:00 +19°C° 0 mm 5 m/s 759 mmHg 47%

    26 Janeiro, Sábado

    Tempo Temperatura Precipitação Vento Pressão Humidade
    00:00 +19°C° 0 mm 4 m/s 759 mmHg 43%
    01:00 +19°C° 0 mm 4 m/s 759 mmHg 39%
    02:00 +19°C° 0 mm 4 m/s 759 mmHg 35%
    03:00 +18°C° 0 mm 4 m/s 760 mmHg 33%
    04:00 +17°C° 0 mm 5 m/s 760 mmHg 31%
    05:00 +16°C° 0 mm 5 m/s 760 mmHg 30%
    06:00 +17°C° 0 mm 5 m/s 761 mmHg 29%
    07:00 +17°C° 0 mm 5 m/s 761 mmHg 29%
    08:00 +19°C° 0 mm 5 m/s 762 mmHg 28%
    09:00 +20°C° 0 mm 4 m/s 762 mmHg 26%
    10:00 +21°C° 0 mm 3 m/s 762 mmHg 24%
    11:00 +23°C° 0 mm 2 m/s 762 mmHg 22%
    12:00 +24°C° 0 mm 2 m/s 761 mmHg 21%
    13:00 +25°C° 0 mm 3 m/s 761 mmHg 19%
    14:00 +26°C° 0 mm 3 m/s 760 mmHg 18%
    15:00 +26°C° 0 mm 4 m/s 760 mmHg 18%
    16:00 +27°C° 0 mm 5 m/s 759 mmHg 19%
    17:00 +27°C° 0 mm 6 m/s 759 mmHg 19%
    18:00 +26°C° 0 mm 8 m/s 759 mmHg 23%
    19:00 +24°C° 0 mm 9 m/s 758 mmHg 27%
    20:00 +23°C° 0 mm 11 m/s 758 mmHg 31%
    21:00 +23°C° 0 mm 11 m/s 758 mmHg 33%
    22:00 +22°C° 0 mm 11 m/s 758 mmHg 36%
    23:00 +21°C° 0 mm 11 m/s 757 mmHg 39%
    Mostrar mais